Flag for U.S.A. Weather past 2 weeks in Costa Mesa, California, U.S.A.

Now
61 °F

Overcast.


Feels Like: 61 °F
Forecast: 58 / 75 °F
Wind: 3 mph from South

Location: John Wayne Airport-Orange County Airport

Current Time: Mar 30, 2015 at 12:40:29 AM

Latest Report: Mar 29, 2015 at 11:53 PM


Visibility: 9 mi

Pressure: 30.02 "Hg

Humidity: 87%

Dew point: 57 °F

Location of Costa MesaLocation

Historic Weather in Costa Mesa — Graph

°F

Costa Mesa temperature yesterday

Maximum temperature yesterday: 75 °F (at 2:53 PM)
Minimum temperature yesterday: 60 °F (at 2:53 AM)
Average temperature yesterday: 65 °F

Past Weeks' High & Low Weather Summary

 TemperatureHumidityPressure
High89 °F (Mar 15, 12:53 PM)93% (Mar 28, 4:53 AM)30.19 "Hg (Mar 28, 4:53 AM)
Low58 °F (Mar 24, 2:53 AM)12% (Mar 15, 1:53 PM)29.87 "Hg (Mar 16, 5:53 PM)
Average67 °F61%30.03 "Hg
* Reported Mar 14 10:53 PM — Mar 29 10:53 PM, Costa Mesa, Weather by CustomWeather, © 2015

Note: Actual official high and low records may vary slightly from our data, if they occured in-between our weather recording intervals... More about our weather records

Advertising

Costa Mesa weather history for previous 24 hours

 ConditionsComfort  
Time TempWeatherWind HumidityBarometerVisibility
10:53 PM
Sun, Mar 29
61 °FPassing clouds.5 mph87%30.02 "Hg8 mi
9:53 PM62 °FClear.5 mph83%30.02 "Hg9 mi
8:53 PM63 °FPassing clouds.5 mph81%30.01 "Hg9 mi
7:53 PM63 °FPassing clouds.8 mph84%29.99 "Hg10 mi
6:53 PM65 °FSunny.9 mph76%29.98 "Hg10 mi
5:53 PM68 °FPassing clouds.6 mph68%29.97 "Hg10 mi
4:53 PM71 °FPassing clouds.6 mph59%29.97 "Hg10 mi
3:53 PM74 °FPassing clouds.10 mph50%29.97 "Hg10 mi
2:53 PM75 °FPassing clouds.8 mph48%29.98 "Hg10 mi
1:53 PM73 °FPassing clouds.9 mph51%30.01 "Hg10 mi
12:53 PM71 °FScattered clouds.8 mph55%30.03 "Hg10 mi
11:53 AM71 °FPartly sunny.10 mph59%30.04 "Hg10 mi
10:53 AM71 °FPartly sunny.5 mph55%30.04 "Hg10 mi
9:53 AM66 °FSunny.No wind65%30.05 "Hg8 mi
8:53 AM63 °FPartly sunny.No wind75%30.05 "Hg9 mi
7:53 AM60 °FOvercast.3 mph83%30.06 "Hg8 mi
6:53 AM61 °FOvercast.5 mph83%30.04 "Hg9 mi
5:53 AM61 °FLow clouds.No wind83%30.04 "Hg9 mi
4:53 AM61 °FLow clouds.No wind87%30.03 "Hg9 mi
3:53 AM61 °FLow clouds.No wind87%30.01 "Hg8 mi
2:53 AM60 °FPassing clouds.No wind90%30.02 "Hg8 mi
1:53 AM61 °FLow clouds.3 mph90%30.03 "Hg7 mi
12:53 AM61 °FFog.6 mph93%30.04 "Hg4 mi
Weather by CustomWeather, © 2015

See weather overviewHow to use our weather pages